Location: Street
(51.1247°N, 2.7429°W)
Time: 06:28:48
(UTC+00:00)

SR - Pass Details

Date: 04 December 2020
Orbit: 575 x 880 km, 66.7° (Epoch: 25 January)

Event Time Altitude Azimuth Distance (km) Brightness Sun altitude
Rises 02:30:41 0° 317° (NW) 3,195 - -49.2°
Reaches altitude 10° 02:33:06 10° 310° (NW) 2,316 - -48.9°
Maximum altitude 02:38:02 39° 243° (WSW) 1,199 - -48.2°
Drops below altitude 10° 02:43:17 10° 177° (S) 2,464 - -47.5°
Sets 02:45:57 0° 170° (S) 3,425 - -47.1°
